Caldwell, ID

6:26 AM MST on February 24, 2017 (GMT -0700)
Caldwell Industrial

Weather History for KEUL - March, 2013

Change the Weather History Date:

Tuesday, March 5, 2013

  Actual Average (KBOI) Record (KBOI)
Temperature  
Mean Temperature 43 °F -  
Max Temperature 53 °F 50 °F 67 °F (1986)
Min Temperature 33 °F 31 °F 10 °F (1955)
Degree Days  
Heating Degree Days 22    
Moisture  
Dew Point 18 °F    
Average Humidity 37    
Maximum Humidity 48    
Minimum Humidity 26    
Precipitation  
Precipitation 0.00 in - - ()
Sea Level Pressure  
Sea Level Pressure 29.96 in    
Wind  
Wind Speed 21 mph (SSE)    
Max Wind Speed 32 mph    
Max Gust Speed 41 mph    
Visibility 10 miles    
Events      
Averages and records for this station are not official NWS values.
T = Trace of Precipitation, MM = Missing Value Source: NWS Daily Summary

Daily Weather History Graph

Daily Weather History Graph

Search for Another Location

Airport or City:

Trip Planner

Search our weather history database for the weather conditions in past years. The results will help you decide how hot, cold, wet, or windy it might be!

Date:

Astronomy

Mar. 05, 2013 Rise Set
Actual Time 7:15 AM MST 6:40 PM MST
Civil Twilight 6:47 AM MST 7:09 PM MST
Nautical Twilight 6:13 AM MST 7:42 PM MST
Astronomical Twilight 5:40 AM MST 8:16 PM MST
Moon 2:40 AM MST (3/5) 12:16 PM MST (3/5)
Length of Visible Light 12h 22m
Length of Day
11h 25m
Last Quarter, 40% of the Moon is Illuminated
Mar 5
Last Quarter
Mar 11
New
Mar 19
First Quarter
Mar 27
Full
Apr 2
Last Quarter

Hourly Weather History & Observations

Time (MST) Temp. Windchill Dew Point Humidity Pressure Visibility Wind Dir Wind Speed Gust Speed Precip Events Conditions
12:55 AM 35.6 °F 24.8 °F 12.2 °F 38% 30.13 in 10.0 mi SSE 19.6 mph - N/A   Clear
1:15 AM 35.6 °F 24.2 °F 12.2 °F 38% 30.12 in 10.0 mi SSE 21.9 mph 28.8 mph N/A   Clear
1:35 AM 35.6 °F 24.5 °F 12.2 °F 38% 30.13 in 10.0 mi SSE 20.7 mph 26.5 mph N/A   Clear
1:55 AM 35.6 °F 24.8 °F 12.2 °F 38% 30.13 in 10.0 mi SSE 19.6 mph 27.6 mph N/A   Clear
2:15 AM 35.6 °F 25.2 °F 12.2 °F 38% 30.13 in 10.0 mi SSE 18.4 mph 26.5 mph N/A   Clear
2:35 AM 35.6 °F 24.8 °F 12.2 °F 38% 30.12 in 10.0 mi SSE 19.6 mph 25.3 mph N/A   Clear
2:55 AM 35.6 °F 25.5 °F 14.0 °F 41% 30.12 in 10.0 mi SSE 17.3 mph 24.2 mph N/A   Clear
3:15 AM 35.6 °F 24.8 °F 14.0 °F 41% 30.11 in 10.0 mi SSE 19.6 mph - N/A   Clear
3:35 AM 35.6 °F 25.5 °F 14.0 °F 41% 30.11 in 10.0 mi SSE 17.3 mph - N/A   Clear
3:55 AM 33.8 °F 23.2 °F 14.0 °F 44% 30.11 in 10.0 mi SSE 17.3 mph - N/A   Clear
4:15 AM 33.8 °F 22.5 °F 14.0 °F 44% 30.10 in 10.0 mi SSE 19.6 mph 27.6 mph N/A   Clear
4:35 AM 33.8 °F 21.9 °F 15.8 °F 48% 30.10 in 10.0 mi SSE 21.9 mph 27.6 mph N/A   Clear
4:55 AM 33.8 °F 22.5 °F 15.8 °F 48% 30.10 in 10.0 mi SSE 19.6 mph - N/A   Clear
5:15 AM 33.8 °F 22.5 °F 15.8 °F 48% 30.09 in 10.0 mi SSE 19.6 mph - N/A   Clear
5:35 AM 33.8 °F 22.8 °F 14.0 °F 44% 30.09 in 10.0 mi SSE 18.4 mph 24.2 mph N/A   Clear
6:35 AM 33.8 °F 23.9 °F 14.0 °F 44% 30.08 in 10.0 mi SSE 15.0 mph - N/A   Clear
6:55 AM 33.8 °F 23.5 °F 14.0 °F 44% 30.08 in 10.0 mi SE 16.1 mph 23.0 mph N/A   Clear
7:15 AM 33.8 °F 23.9 °F 14.0 °F 44% 30.07 in 10.0 mi SSE 15.0 mph 24.2 mph N/A   Mostly Cloudy
7:35 AM 33.8 °F 22.2 °F 14.0 °F 44% 30.06 in 10.0 mi SSE 20.7 mph 29.9 mph N/A   Scattered Clouds
7:55 AM 33.8 °F 23.9 °F 14.0 °F 44% 30.07 in 10.0 mi SSE 15.0 mph 21.9 mph N/A   Clear
8:15 AM 35.6 °F 25.2 °F 14.0 °F 41% 30.07 in 10.0 mi SSE 18.4 mph 25.3 mph N/A   Clear
8:35 AM 35.6 °F 24.8 °F 14.0 °F 41% 30.07 in 10.0 mi SSE 19.6 mph 28.8 mph N/A   Clear
8:55 AM 37.4 °F 26.9 °F 15.8 °F 41% 30.07 in 10.0 mi SSE 20.7 mph 28.8 mph N/A   Scattered Clouds
9:15 AM 37.4 °F 26.6 °F 15.8 °F 41% 30.06 in 10.0 mi SSE 21.9 mph 31.1 mph N/A   Scattered Clouds
9:35 AM 37.4 °F 27.5 °F 15.8 °F 41% 30.06 in 10.0 mi SSE 18.4 mph 24.2 mph N/A   Scattered Clouds
9:55 AM 39.2 °F 28.3 °F 15.8 °F 39% 30.05 in 10.0 mi SSE 25.3 mph 31.1 mph N/A   Mostly Cloudy
10:15 AM 41.0 °F 30.7 °F 15.8 °F 36% 30.05 in 10.0 mi SSE 25.3 mph 31.1 mph N/A   Mostly Cloudy
10:35 AM 41.0 °F 30.7 °F 15.8 °F 36% 30.05 in 10.0 mi SSE 25.3 mph 35.7 mph N/A   Partly Cloudy
10:55 AM 42.8 °F 33.3 °F 15.8 °F 34% 30.04 in 10.0 mi SE 24.2 mph 29.9 mph N/A   Clear
11:15 AM 42.8 °F 34.3 °F 17.6 °F 36% 30.02 in 10.0 mi SSE 19.6 mph 31.1 mph N/A   Clear
11:35 AM 42.8 °F 33.8 °F 17.6 °F 36% 30.01 in 10.0 mi SSE 21.9 mph 31.1 mph N/A   Clear
11:55 AM 44.6 °F 36.1 °F 17.6 °F 34% 30.01 in 10.0 mi SSE 21.9 mph 32.2 mph N/A   Clear
12:15 PM 46.4 °F 37.4 °F 17.6 °F 32% 29.98 in 10.0 mi SSE 28.8 mph 33.4 mph N/A   Clear
12:35 PM 46.4 °F 37.4 °F 17.6 °F 32% 29.97 in 10.0 mi SSE 28.8 mph 36.8 mph N/A   Clear
12:55 PM 48.2 °F - 19.4 °F 32% 29.96 in 10.0 mi SSE 28.8 mph 38.0 mph N/A   Clear
1:15 PM 48.2 °F - 17.6 °F 30% 29.94 in 10.0 mi SSE 31.1 mph 40.3 mph N/A   Clear
1:35 PM 51.8 °F - 19.4 °F 28% 29.93 in 10.0 mi North - - N/A   Clear
2:15 PM 51.8 °F - 19.4 °F 28% 29.90 in 10.0 mi SSE 29.9 mph 39.1 mph N/A   Clear
2:35 PM 51.8 °F - 19.4 °F 28% 29.89 in 10.0 mi SSE 32.2 mph 39.1 mph N/A   Clear
2:55 PM 51.8 °F - 19.4 °F 28% 29.88 in 10.0 mi SSE 31.1 mph 41.4 mph N/A   Clear
3:15 PM 53.6 °F - 19.4 °F 26% 29.88 in 10.0 mi SSE 31.1 mph 38.0 mph N/A   Clear
3:35 PM 53.6 °F - 19.4 °F 26% 29.88 in 10.0 mi SSE 27.6 mph 36.8 mph N/A   Clear
3:55 PM 53.6 °F - 21.2 °F 28% 29.87 in 10.0 mi SSE 29.9 mph 35.7 mph N/A   Clear
4:15 PM 53.6 °F - 21.2 °F 28% 29.87 in 10.0 mi SSE 25.3 mph 32.2 mph N/A   Clear
4:35 PM 51.8 °F - 21.2 °F 30% 29.87 in 10.0 mi SSE 21.9 mph 33.4 mph N/A   Clear
4:55 PM 51.8 °F - 21.2 °F 30% 29.86 in 10.0 mi SSE 23.0 mph 35.7 mph N/A   Mostly Cloudy
5:15 PM 51.8 °F - 21.2 °F 30% 29.85 in 10.0 mi SSE 18.4 mph 29.9 mph N/A   Scattered Clouds
5:35 PM 51.8 °F - 21.2 °F 30% 29.84 in 10.0 mi SSE 24.2 mph 32.2 mph N/A   Partly Cloudy
5:55 PM 51.8 °F - 21.2 °F 30% 29.84 in 10.0 mi SSE 19.6 mph 26.5 mph N/A   Mostly Cloudy
6:15 PM 51.8 °F - 21.2 °F 30% 29.83 in 10.0 mi SSE 20.7 mph 26.5 mph N/A   Mostly Cloudy
6:35 PM 50.0 °F - 21.2 °F 32% 29.83 in 10.0 mi SSE 20.7 mph 27.6 mph N/A   Partly Cloudy
6:55 PM 48.2 °F - 21.2 °F 34% 29.82 in 10.0 mi SSE 18.4 mph 28.8 mph N/A   Clear
7:15 PM 48.2 °F - 21.2 °F 34% 29.82 in 10.0 mi SSE 25.3 mph 29.9 mph N/A   Clear
7:35 PM 48.2 °F - 21.2 °F 34% 29.82 in 10.0 mi SSE 20.7 mph 26.5 mph N/A   Clear
7:55 PM 46.4 °F 38.7 °F 21.2 °F 37% 29.81 in 10.0 mi SSE 20.7 mph - N/A   Clear
8:15 PM 46.4 °F 39.5 °F 21.2 °F 37% 29.81 in 10.0 mi SE 17.3 mph - N/A   Clear
8:35 PM 44.6 °F 37.4 °F 21.2 °F 39% 29.80 in 10.0 mi SSE 16.1 mph - N/A   Clear
8:55 PM 46.4 °F 38.7 °F 21.2 °F 37% 29.79 in 10.0 mi SSE 20.7 mph 27.6 mph N/A   Clear
9:15 PM 44.6 °F 36.6 °F 21.2 °F 39% 29.79 in 10.0 mi SSE 19.6 mph 25.3 mph N/A   Clear
9:35 PM 44.6 °F 35.7 °F 21.2 °F 39% 29.79 in 10.0 mi SSE 24.2 mph 29.9 mph N/A   Clear
9:55 PM 44.6 °F 36.6 °F 21.2 °F 39% 29.78 in 10.0 mi SSE 19.6 mph 26.5 mph N/A   Clear
10:15 PM 44.6 °F 36.1 °F 19.4 °F 37% 29.77 in 10.0 mi SSE 21.9 mph 27.6 mph N/A   Clear
10:35 PM 44.6 °F 35.3 °F 21.2 °F 39% 29.76 in 10.0 mi SSE 26.5 mph 29.9 mph N/A   Mostly Cloudy
10:55 PM 44.6 °F 35.9 °F 21.2 °F 39% 29.76 in 10.0 mi SSE 23.0 mph 28.8 mph N/A   Overcast
11:15 PM 44.6 °F 36.4 °F 21.2 °F 39% 29.74 in 10.0 mi SSE 20.7 mph 27.6 mph N/A   Mostly Cloudy
11:35 PM 44.6 °F 36.4 °F 21.2 °F 39% 29.74 in 10.0 mi SSE 20.7 mph 28.8 mph N/A   Scattered Clouds
11:55 PM 44.6 °F 36.4 °F 21.2 °F 39% 29.73 in 10.0 mi SSE 20.7 mph 24.2 mph N/A   Mostly Cloudy